TimeEDT,TemperatureF,Dew PointF,Humidity,Sea Level PressureIn,VisibilityMPH,Wind Direction,Wind SpeedMPH,Gust SpeedMPH,PrecipitationIn,Events,Conditions,WindDirDegrees,DateUTC
12:16 AM,38.3,28.0,67,29.83,10.0,West,11.5,19.6,N/A,,Scattered Clouds,270,2012-10-06 04:16:00
12:36 AM,37.9,28.9,70,29.83,10.0,West,15.0,19.6,N/A,,Overcast,270,2012-10-06 04:36:00
12:55 AM,37.6,29.3,72,29.83,10.0,WNW,15.0,19.6,N/A,,Overcast,290,2012-10-06 04:55:00
1:16 AM,37.0,30.2,76,29.83,10.0,West,13.8,21.9,N/A,,Overcast,280,2012-10-06 05:16:00
1:36 AM,36.9,30.6,78,29.83,10.0,West,11.5,18.4,N/A,,Overcast,280,2012-10-06 05:36:00
1:56 AM,36.7,30.7,79,29.83,10.0,WNW,12.7,-,N/A,,Overcast,290,2012-10-06 05:56:00
2:16 AM,36.7,30.6,78,29.84,10.0,WNW,12.7,16.1,N/A,,Overcast,290,2012-10-06 06:16:00
2:35 AM,36.1,30.2,79,29.84,10.0,WNW,10.4,-,N/A,,Mostly Cloudy,300,2012-10-06 06:35:00
2:56 AM,35.8,30.2,80,29.85,10.0,WNW,9.2,-,N/A,,Mostly Cloudy,300,2012-10-06 06:56:00
3:16 AM,36.0,29.8,78,29.84,10.0,NW,12.7,21.9,N/A,,Mostly Cloudy,310,2012-10-06 07:16:00
3:35 AM,35.6,29.7,79,29.85,10.0,NW,12.7,20.7,N/A,,Scattered Clouds,310,2012-10-06 07:35:00
3:56 AM,35.8,30.0,80,29.84,10.0,NW,18.4,-,N/A,,Scattered Clouds,320,2012-10-06 07:56:00
4:16 AM,35.6,30.6,82,29.84,10.0,WNW,11.5,18.4,N/A,,Scattered Clouds,300,2012-10-06 08:16:00
4:36 AM,35.6,30.2,81,29.84,10.0,WNW,16.1,20.7,N/A,,Overcast,300,2012-10-06 08:36:00
4:56 AM,35.1,30.2,82,29.85,10.0,WNW,13.8,20.7,N/A,,Scattered Clouds,300,2012-10-06 08:56:00
5:16 AM,35.6,30.2,81,29.85,10.0,NW,13.8,23.0,N/A,,Clear,310,2012-10-06 09:16:00
5:36 AM,34.3,29.7,83,29.86,10.0,NW,12.7,18.4,N/A,,Scattered Clouds,310,2012-10-06 09:36:00
5:56 AM,34.5,29.7,82,29.86,10.0,NW,13.8,18.4,N/A,,Clear,320,2012-10-06 09:56:00
6:50 AM,33.8,30.2,87,29.88,10.0,NW,13.8,17.3,N/A,,Scattered Clouds,320,2012-10-06 10:50:00
7:50 AM,33.8,30.2,87,29.90,7.0,NW,13.8,19.6,N/A,Snow,Light Snow,320,2012-10-06 11:50:00
8:50 AM,33.8,30.2,87,29.93,7.0,NW,10.4,18.4,N/A,Snow,Light Snow,320,2012-10-06 12:50:00
9:10 AM,33.8,30.2,87,29.94,3.0,NW,16.1,24.2,N/A,Snow,Light Snow,320,2012-10-06 13:10:00
9:50 AM,35.6,32.0,87,29.95,5.0,NNW,15.0,20.7,N/A,Snow,Light Snow,330,2012-10-06 13:50:00
10:50 AM,35.6,32.0,87,29.98,4.0,NNW,11.5,23.0,N/A,Snow,Light Snow,330,2012-10-06 14:50:00
11:50 AM,35.6,32.0,87,30.00,5.0,NW,15.0,25.3,N/A,Snow,Light Snow,320,2012-10-06 15:50:00
12:50 PM,37.4,33.8,87,30.02,5.0,NNW,15.0,20.7,N/A,Snow,Light Snow,340,2012-10-06 16:50:00
1:50 PM,37.4,33.8,87,30.03,10.0,North,11.5,19.6,N/A,Snow,Light Snow,350,2012-10-06 17:50:00
2:50 PM,39.2,30.2,70,30.03,10.0,NNW,15.0,25.3,N/A,,Overcast,340,2012-10-06 18:50:00
3:50 PM,39.2,33.8,81,30.05,10.0,NW,10.4,-,N/A,,Mostly Cloudy,320,2012-10-06 19:50:00
4:50 PM,35.6,32.0,87,30.06,5.0,North,16.1,25.3,N/A,Snow,Light Snow,350,2012-10-06 20:50:00
5:55 PM,35.6,32.0,87,30.07,10.0,NNW,6.9,-,N/A,,Mostly Cloudy,340,2012-10-06 21:55:00
6:50 PM,35.6,32.0,87,30.08,10.0,NNW,6.9,-,N/A,,Mostly Cloudy,330,2012-10-06 22:50:00
7:50 PM,35.6,28.4,75,30.09,10.0,WNW,9.2,-,N/A,,Mostly Cloudy,300,2012-10-06 23:50:00
8:50 PM,35.6,28.4,75,30.09,10.0,West,8.1,-,N/A,,Overcast,280,2012-10-07 00:50:00
9:55 PM,33.8,28.4,81,30.10,10.0,NW,3.5,-,N/A,,Overcast,310,2012-10-07 01:55:00
10:16 PM,35.6,28.0,74,30.09,10.0,WNW,6.9,-,N/A,,Overcast,300,2012-10-07 02:16:00
10:35 PM,35.8,27.9,73,30.09,10.0,WNW,8.1,-,N/A,,Overcast,300,2012-10-07 02:35:00
10:56 PM,35.8,27.7,72,30.10,10.0,NW,9.2,-,N/A,,Overcast,320,2012-10-07 02:56:00
11:16 PM,36.0,26.8,69,30.10,10.0,WNW,6.9,-,N/A,,Overcast,300,2012-10-07 03:16:00
11:36 PM,36.0,27.0,70,30.09,10.0,WNW,9.2,-,N/A,,Overcast,290,2012-10-07 03:36:00
11:56 PM,35.8,27.3,71,30.10,10.0,WNW,8.1,-,N/A,,Overcast,290,2012-10-07 03:56:00